Overview Statistics Trail Chart Weather Telemetry Raw packets
 

This is the latest recevied weather packets stored in our database for station/object K4FDS. If no packets are shown the sender has not sent any weather packets the latest 10 day(s).

<< 12 13 14 15 16 17 18 >>
Time Temp. Humidity Pressure Rain* Wind** Luminosity Snow
1777243755 14.44° C 84% 1013.8 hPa 0 mm 0 m/s - -
1777241955 13.33° C 90% 1012.9 hPa 0 mm 0.45 m/s, 155° - -
1777240155 13.33° C 90% 1012.9 hPa 0 mm 0.45 m/s, 155° - -
1777238355 13.33° C 90% 1012.9 hPa 0 mm 0.45 m/s, 155° - -
1777236555 13.33° C 90% 1012.9 hPa 0 mm 0.45 m/s, 155° - -
1777234755 13.33° C 90% 1012.9 hPa 0 mm 0.45 m/s, 155° - -
1777232955 12.78° C 90% 1013.3 hPa 0 mm 0.45 m/s, 139° - -
1777231155 12.22° C 94% 1013.6 hPa 0 mm 0.89 m/s, 126° - -
1777229355 13.33° C 92% 1012.8 hPa 0 mm 0.45 m/s, 166° - -
1777227555 13.33° C 92% 1012.8 hPa 0 mm 0.45 m/s, 166° - -
1777225755 13.33° C 92% 1012.9 hPa 0 mm 0.89 m/s, 136° - -
1777223955 13.89° C 93% 1012.9 hPa 0 mm 0.45 m/s, 165° - -
1777222155 13.33° C 95% 1012.8 hPa 0 mm 0.45 m/s, 187° - -
1777220355 13.89° C 95% 1012.6 hPa 0 mm 0.45 m/s, 151° - -
1777218555 13.33° C 97% 1012.4 hPa 0 mm 0 m/s - -
1777216755 13.33° C 98% 1012.3 hPa 0 mm 0 m/s - -
1777214955 12.78° C 99% 1012 hPa 0 mm 0 m/s - -
1777213155 13.33° C 99% 1011.9 hPa 0 mm 0.45 m/s, 138° - -
1777211355 13.89° C 99% 1011.5 hPa 0 mm 0.45 m/s, 134° - -
1777209555 13.89° C 99% 1011.2 hPa 0 mm 0.45 m/s, 218° - -
1777207755 13.89° C 99% 1011.1 hPa 0 mm 0.45 m/s, 33° - -
1777205955 13.33° C 99% 1010.8 hPa 0 mm 0.45 m/s, 208° - -
1777204155 13.33° C 99% 1010.4 hPa 0 mm 0.89 m/s, 222° - -
1777202355 13.33° C 99% 1009.8 hPa 0 mm 0 m/s - -
1777200555 12.78° C 99% 1009.4 hPa 0 mm 0.45 m/s, 224° - -

* Rain latest hour (hover to see other rain measurements)
** Current wind speed in m/s (hover to see current wind gust speed)